Time,TemperatureF,DewpointF,PressureIn,WindDirection,WindDirectionDegrees,WindSpeedMPH,WindSpeedGustMPH,Humidity,HourlyPrecipIn,Conditions,Clouds,dailyrainin,SoftwareType,DateUTC
2013-10-10 00:11:00,52.0,47.0,29.80,NW,311,0.0,6.0,82,0.00,,,0.07,,2013-10-10 07:11:00,
2013-10-10 00:21:00,52.0,46.0,29.79,North,355,0.0,4.0,81,0.00,,,0.07,,2013-10-10 07:21:00,
2013-10-10 00:42:00,52.0,45.0,29.80,North,360,0.0,4.0,78,0.00,,,0.07,,2013-10-10 07:42:00,
2013-10-10 00:52:00,52.0,45.0,29.80,North,360,0.0,0.0,77,0.00,,,0.07,,2013-10-10 07:52:00,
2013-10-10 01:11:00,51.0,45.0,29.80,North,360,0.0,0.0,79,0.00,,,0.07,,2013-10-10 08:11:00,
2013-10-10 01:22:00,51.0,44.0,29.80,North,360,0.0,1.0,77,0.00,,,0.07,,2013-10-10 08:22:00,
2013-10-10 01:42:00,51.0,44.0,29.80,North,360,0.0,1.0,78,0.00,,,0.07,,2013-10-10 08:42:00,
2013-10-10 01:52:00,50.0,43.0,29.81,North,360,0.0,0.0,78,0.00,,,0.07,,2013-10-10 08:52:00,
2013-10-10 02:11:00,51.0,45.0,29.81,North,360,0.0,0.0,79,0.00,,,0.07,,2013-10-10 09:11:00,
2013-10-10 02:21:00,50.0,44.0,29.82,North,360,0.0,0.0,79,0.00,,,0.07,,2013-10-10 09:21:00,
2013-10-10 02:33:00,50.0,44.0,29.82,North,360,0.0,0.0,79,0.00,,,0.07,,2013-10-10 09:33:00,
2013-10-10 02:43:00,50.0,44.0,29.82,North,360,0.0,0.0,79,0.00,,,0.07,,2013-10-10 09:43:00,
2013-10-10 02:53:00,50.0,44.0,29.83,North,360,0.0,0.0,81,0.00,,,0.07,,2013-10-10 09:53:00,
2013-10-10 03:12:00,50.0,45.0,29.83,North,360,0.0,0.0,82,0.00,,,0.07,,2013-10-10 10:12:00,
2013-10-10 03:23:00,50.0,45.0,29.83,North,360,0.0,0.0,82,0.00,,,0.07,,2013-10-10 10:23:00,
2013-10-10 03:42:00,50.0,45.0,29.84,North,360,0.0,0.0,82,0.00,,,0.07,,2013-10-10 10:42:00,
2013-10-10 03:53:00,50.0,45.0,29.84,North,360,0.0,0.0,84,0.00,,,0.07,,2013-10-10 10:53:00,
2013-10-10 04:12:00,50.0,45.0,29.84,North,360,0.0,0.0,84,0.00,,,0.07,,2013-10-10 11:12:00,
2013-10-10 04:21:00,50.0,45.0,29.85,North,360,0.0,1.0,84,0.00,,,0.07,,2013-10-10 11:21:00,
2013-10-10 04:42:00,51.0,46.0,29.85,North,360,0.0,2.0,83,0.00,,,0.07,,2013-10-10 11:42:00,
2013-10-10 04:53:00,51.0,46.0,29.86,NNW,347,0.0,1.0,82,0.00,,,0.07,,2013-10-10 11:53:00,
2013-10-10 05:11:00,51.0,45.0,29.86,NNW,347,0.0,1.0,81,0.00,,,0.07,,2013-10-10 12:11:00,
2013-10-10 05:21:00,51.0,45.0,29.86,NNW,347,0.0,0.0,80,0.00,,,0.07,,2013-10-10 12:21:00,
2013-10-10 05:41:00,51.0,45.0,29.87,NNW,347,0.0,0.0,80,0.00,,,0.07,,2013-10-10 12:41:00,
2013-10-10 05:51:00,51.0,45.0,29.87,NNW,347,0.0,0.0,80,0.00,,,0.07,,2013-10-10 12:51:00,
2013-10-10 06:11:00,51.0,45.0,29.88,NNW,347,0.0,1.0,80,0.00,,,0.07,,2013-10-10 13:11:00,
2013-10-10 06:21:00,51.0,45.0,29.89,NNW,347,0.0,2.0,79,0.00,,,0.07,,2013-10-10 13:21:00,
2013-10-10 06:41:00,51.0,45.0,29.90,NNW,347,0.0,1.0,79,0.00,,,0.07,,2013-10-10 13:41:00,
2013-10-10 06:52:00,51.0,44.0,29.90,NNW,347,0.0,2.0,78,0.00,,,0.07,,2013-10-10 13:52:00,
2013-10-10 07:11:00,51.0,45.0,29.91,NNW,347,0.0,0.0,80,0.00,,,0.07,,2013-10-10 14:11:00,
2013-10-10 07:21:00,51.0,46.0,29.91,NNW,347,0.0,1.0,82,0.00,,,0.07,,2013-10-10 14:21:00,
2013-10-10 07:42:00,51.0,46.0,29.92,NNW,347,0.0,1.0,83,0.00,,,0.07,,2013-10-10 14:42:00,
2013-10-10 07:52:00,51.0,46.0,29.93,NNW,347,0.0,2.0,82,0.00,,,0.07,,2013-10-10 14:52:00,
2013-10-10 08:11:00,51.0,46.0,29.93,NNE,27,0.0,3.0,82,0.00,,,0.06,,2013-10-10 15:11:00,
2013-10-10 08:22:00,52.0,47.0,29.94,ENE,59,0.0,3.0,83,0.00,,,0.06,,2013-10-10 15:22:00,
2013-10-10 08:43:00,54.0,48.0,29.95,NE,54,0.0,2.0,81,0.00,,,0.06,,2013-10-10 15:43:00,
2013-10-10 08:54:00,56.0,50.0,29.97,NNW,340,0.0,0.0,79,0.00,,,0.06,,2013-10-10 15:54:00,
2013-10-10 09:23:00,58.0,50.0,29.98,SE,139,0.0,1.0,74,0.00,,,0.04,,2013-10-10 16:23:00,
2013-10-10 09:42:00,59.0,50.0,29.98,ENE,76,0.0,1.0,72,0.00,,,0.04,,2013-10-10 16:42:00,
2013-10-10 09:53:00,60.0,51.0,29.98,ENE,63,0.0,1.0,73,0.00,,,0.04,,2013-10-10 16:53:00,
2013-10-10 10:12:00,61.0,51.0,29.99,ESE,117,0.0,3.0,70,0.00,,,0.04,,2013-10-10 17:12:00,
2013-10-10 10:23:00,61.0,51.0,29.99,ESE,111,0.0,3.0,70,0.00,,,0.04,,2013-10-10 17:23:00,
2013-10-10 10:42:00,62.0,51.0,29.99,SE,143,1.0,5.0,68,0.00,,,0.04,,2013-10-10 17:42:00,
2013-10-10 10:52:00,62.0,52.0,29.99,ESE,123,0.0,4.0,70,0.00,,,0.04,,2013-10-10 17:52:00,
2013-10-10 11:12:00,63.0,53.0,30.00,ESE,111,0.0,4.0,69,0.00,,,0.04,,2013-10-10 18:12:00,
2013-10-10 11:21:00,63.0,52.0,29.99,SE,131,0.0,5.0,67,0.00,,,0.04,,2013-10-10 18:21:00,
2013-10-10 11:42:00,63.0,51.0,30.00,East,95,0.0,7.0,66,0.00,,,0.04,,2013-10-10 18:42:00,
2013-10-10 11:52:00,64.0,52.0,30.00,ESE,119,0.0,7.0,65,0.00,,,0.04,,2013-10-10 18:52:00,
2013-10-10 12:11:00,64.0,51.0,30.00,ESE,122,0.0,5.0,62,0.00,,,0.04,,2013-10-10 19:11:00,
2013-10-10 12:21:00,65.0,51.0,30.00,South,173,0.0,4.0,61,0.00,,,0.04,,2013-10-10 19:21:00,
2013-10-10 12:42:00,65.0,52.0,30.00,ESE,112,0.0,5.0,62,0.00,,,0.04,,2013-10-10 19:42:00,
2013-10-10 12:52:00,66.0,51.0,29.99,South,186,0.0,4.0,59,0.00,,,0.04,,2013-10-10 19:52:00,
2013-10-10 13:12:00,66.0,52.0,29.99,South,175,0.0,5.0,61,0.00,,,0.04,,2013-10-10 20:12:00,
2013-10-10 13:22:00,65.0,52.0,29.99,South,171,0.0,4.0,63,0.00,,,0.04,,2013-10-10 20:22:00,
2013-10-10 13:42:00,67.0,53.0,29.99,South,189,0.0,3.0,60,0.00,,,0.04,,2013-10-10 20:42:00,
2013-10-10 13:52:00,66.0,51.0,29.99,SSE,166,0.0,4.0,59,0.00,,,0.04,,2013-10-10 20:52:00,
2013-10-10 14:12:00,67.0,52.0,29.98,South,177,0.0,5.0,59,0.00,,,0.04,,2013-10-10 21:12:00,
2013-10-10 14:21:00,67.0,53.0,29.98,South,180,0.0,6.0,60,0.00,,,0.04,,2013-10-10 21:21:00,
2013-10-10 14:43:00,66.0,52.0,29.98,South,180,0.0,3.0,61,0.00,,,0.04,,2013-10-10 21:43:00,
2013-10-10 14:54:00,67.0,54.0,29.98,South,178,0.0,4.0,62,0.00,,,0.04,,2013-10-10 21:54:00,
2013-10-10 15:13:00,66.0,53.0,29.99,South,191,0.0,4.0,63,0.00,,,0.04,,2013-10-10 22:13:00,
2013-10-10 15:24:00,67.0,53.0,29.99,South,180,0.0,4.0,61,0.00,,,0.04,,2013-10-10 22:24:00,
2013-10-10 15:43:00,67.0,52.0,29.98,South,190,0.0,4.0,59,0.00,,,0.04,,2013-10-10 22:43:00,
2013-10-10 15:53:00,66.0,52.0,29.99,South,182,0.0,4.0,60,0.00,,,0.04,,2013-10-10 22:53:00,
2013-10-10 16:12:00,66.0,52.0,29.99,South,169,0.0,4.0,61,0.00,,,0.04,,2013-10-10 23:12:00,
2013-10-10 16:23:00,66.0,52.0,29.99,South,174,0.0,3.0,61,0.00,,,0.04,,2013-10-10 23:23:00,
2013-10-10 16:43:00,65.0,52.0,29.98,South,182,0.0,3.0,62,0.00,,,0.04,,2013-10-10 23:43:00,
2013-10-10 16:52:00,65.0,52.0,29.98,South,170,0.0,3.0,63,0.00,,,0.04,,2013-10-10 23:52:00,
2013-10-10 17:11:00,64.0,51.0,29.98,SW,225,0.0,1.0,63,0.00,,,0.04,,2013-10-11 00:11:00,
2013-10-10 17:21:00,64.0,52.0,29.98,South,178,0.0,1.0,64,0.00,,,0.04,,2013-10-11 00:21:00,
2013-10-10 17:32:00,64.0,52.0,29.98,South,178,0.0,1.0,64,0.00,,,0.04,,2013-10-11 00:32:00,
2013-10-10 17:42:00,64.0,52.0,29.98,South,178,0.0,1.0,64,0.00,,,0.04,,2013-10-11 00:42:00,
2013-10-10 17:52:00,63.0,51.0,29.98,SW,217,0.0,1.0,64,0.00,,,0.04,,2013-10-11 00:52:00,
2013-10-10 18:11:00,62.0,51.0,29.98,WSW,238,0.0,1.0,66,0.00,,,0.04,,2013-10-11 01:11:00,
2013-10-10 18:21:00,62.0,51.0,29.98,SW,227,0.0,1.0,68,0.00,,,0.04,,2013-10-11 01:21:00,
2013-10-10 18:42:00,61.0,51.0,29.98,SW,227,0.0,0.0,69,0.00,,,0.04,,2013-10-11 01:42:00,
2013-10-10 18:52:00,60.0,51.0,29.98,SW,227,0.0,1.0,72,0.00,,,0.04,,2013-10-11 01:52:00,
2013-10-10 19:12:00,59.0,51.0,29.98,SW,227,0.0,0.0,74,0.00,,,0.04,,2013-10-11 02:12:00,
2013-10-10 19:21:00,58.0,50.0,29.98,SW,229,0.0,2.0,76,0.00,,,0.04,,2013-10-11 02:21:00,
2013-10-10 19:42:00,57.0,50.0,29.98,SW,229,0.0,0.0,77,0.00,,,0.04,,2013-10-11 02:42:00,
2013-10-10 19:52:00,57.0,50.0,29.98,SW,229,0.0,0.0,78,0.00,,,0.04,,2013-10-11 02:52:00,
2013-10-10 20:11:00,57.0,50.0,29.99,SW,229,0.0,1.0,78,0.00,,,0.04,,2013-10-11 03:11:00,
2013-10-10 20:23:00,56.0,49.0,29.99,SW,231,0.0,1.0,78,0.00,,,0.04,,2013-10-11 03:23:00,
2013-10-10 20:44:00,56.0,50.0,29.99,SW,231,0.0,1.0,79,0.00,,,0.04,,2013-10-11 03:44:00,
2013-10-10 20:54:00,56.0,50.0,30.00,SW,231,0.0,0.0,80,0.00,,,0.04,,2013-10-11 03:54:00,
2013-10-10 21:13:00,56.0,50.0,30.00,SW,232,0.0,1.0,80,0.00,,,0.04,,2013-10-11 04:13:00,
2013-10-10 21:24:00,56.0,50.0,30.00,SW,232,0.0,1.0,80,0.00,,,0.04,,2013-10-11 04:24:00,
2013-10-10 21:43:00,55.0,49.0,30.00,SW,232,0.0,0.0,80,0.00,,,0.04,,2013-10-11 04:43:00,
2013-10-10 21:53:00,55.0,49.0,30.01,SW,232,0.0,1.0,80,0.00,,,0.04,,2013-10-11 04:53:00,
2013-10-10 22:13:00,55.0,48.0,30.01,WSW,239,0.0,2.0,77,0.00,,,0.04,,2013-10-11 05:13:00,
2013-10-10 22:23:00,56.0,48.0,30.01,WSW,239,0.0,1.0,74,0.00,,,0.04,,2013-10-11 05:23:00,
2013-10-10 22:43:00,56.0,47.0,30.01,WSW,239,0.0,1.0,72,0.00,,,0.04,,2013-10-11 05:43:00,
2013-10-10 22:52:00,56.0,47.0,30.01,WSW,239,0.0,1.0,73,0.00,,,0.04,,2013-10-11 05:52:00,
2013-10-10 23:12:00,56.0,47.0,30.01,WSW,239,0.0,1.0,73,0.00,,,0.00,,2013-10-11 06:12:00,
2013-10-10 23:22:00,56.0,48.0,30.01,WSW,243,0.0,1.0,74,0.00,,,0.00,,2013-10-11 06:22:00,
2013-10-10 23:32:00,56.0,48.0,30.01,WSW,243,0.0,1.0,74,0.00,,,0.00,,2013-10-11 06:32:00,
2013-10-10 23:42:00,56.0,48.0,30.01,WSW,243,0.0,1.0,74,0.00,,,0.00,,2013-10-11 06:42:00,
2013-10-10 23:52:00,56.0,48.0,30.01,WSW,243,0.0,0.0,74,0.00,,,0.00,,2013-10-11 06:52:00,